KAFP

Details ICAO KAFP
Name ANSON CO
Region United States
Timezone America/New_York (UTC-4.0)
Plans Departing 1
Arriving 1
Stats Elevation 300 ft / 91 m (AMSL)
Location 35.020638° -80.077118°
Runways 1
Magnetic Variation 8.243° W
Sunrise 2018-05-25 10:11:50 UTC / 2018-05-25 06:11:50 Local
Sunset 2018-05-26 00:25:35 UTC / 2018-05-25 20:25:35 Local
Advertisement - Login to hide

Runways

ID Width Length Bearing (true) Bearing (mag) Surface Threshold Offset Overrun Length
16 100 ft / 30 m 5,508 ft / 1,679 m 154.64° 162.88° Asphalt 0 ft / 0 m 0 ft / 0 m
34 100 ft / 30 m 5,508 ft / 1,679 m 334.65° 342.89° Asphalt 0 ft / 0 m 0 ft / 0 m

Approach Navaids

Runway Type Ident Frequency Range Bearing (true) Bearing (mag) Slope Elevation
34 Localiser IAFP 108.55 MHz 18 nm / 33 km 334.64° 342.89° - 300 ft / 91 m (AMSL)
34 Glidescope IAFP 108.55 MHz 10 nm / 19 km 334.64° 342.89° 3.00° 300 ft / 91 m (AMSL)
34 DME IAFP 108.55 MHz 18 nm / 33 km - - - 300 ft / 91 m (AMSL)

Map

Weather


0- 5 10 15 20 25 30 35+ Temperature / ° C

Clouds and Precipitation
Forecast for 2018-05-26 00:00 UTC. Updated 6 hours ago

Ground ~20,000 ft ~40,000 ft Winds

METAR

KAFP 260455Z AUTO 00000KT 10SM CLR 20/19 A3001 RMK AO2 T01980186

TAF

Not found

Frequencies

Recorded 119.32 MHz AWOS 3
Approach 120.05 MHz CHARLOTTE APP/DEP
Unicom 122.80 MHz CTAF/UNICOM
Warning: Do not use this data for real-world aviation or navigation. No guarantee of current accuracy is given.